Content
SEND FEEDBACK

Daily
Averages
Monthly
Summary
Czech Republic

BRNO, CZECH REPUBLIC


Home > Europe > Czech Republic
Elevation: 807 feet     Latitude: 49 09N     Longitude: 016 42E

WEATHER
 
SELECT A DAY
Number of Records: 286,040;   Date Range: 2/20/97 - 7/23/14
 
SHARE

PRINT THIS DATA

[ ← Previous Day ]
WEATHER ALMANAC - MARCH 31, 2013
[ Next Day → ]
[ °C ]   °F
Weather ElementAverageHighLow
Temperature32.4 °F35.6 °F (12:30 am)30.2 °F (6:00 pm)
Dewpoint28.9 °F30.2 °F (12:30 am)24.8 °F (10:30 pm)
Humidity86.8 %93 % (4:30 am)75 % (1:00 am)
Barometer29.60 in29.73 in (8:00 pm)29.53 in (7:00 am)
Wind Speed14.9 mph21.9 mph (10:37 am)
Weather ElementAverage
Visibility2.3 mi
Wind DirectionWSW (241.7 °)

Weather ElementTotal
Precipitation---
Heating Degree Days32.1 (Base 65)
Averaged from 66 records on March 31, 2013
WEATHER CONDITIONS BREAKOUT
WIND DIRECTION BREAKOUT
WEATHER BY HOUR - MARCH 31, 2013
[ °C ]   °F
Local TimeTemperatureDewpointHumidityBarometerVisibilityWind DirectionWind SpeedGust SpeedPrecipitationEventsConditions
12:00 AM30.2 °F26.6 °F86 %29.71 in6.2 miWest (280°)9.2 mphPartly Cloudy
12:30 AM35.6 °F30.2 °F81 %29.62 in3.1 miNE (40°)13.8 mphRainLight Rain
12:30 AM30.2 °F26.6 °F86 %29.71 in6.2 miWNW (300°)10.4 mphPartly Cloudy
1:00 AM35.0 °F30.0 °F75 %29.65 in2.0 miNNE (30°)13.4 mphSnowLight Snow
1:00 AM35.6 °F30.2 °F81 %29.59 in1.9 miNNE (30°)12.7 mphRain-SnowLight Rain
1:30 AM33.8 °F30.2 °F87 %29.59 in1.2 miNNE (20°)12.7 mphSnowSnow
1:52 AM33.8 °F30.2 °F87 %29.59 in1.1 miNNE (20°)11.5 mphSnowSnow
3:00 AM33.8 °F30.2 °F87 %29.59 in0.9 miNNE (20°)11.5 mphSnowSnow
3:30 AM33.8 °F30.2 °F87 %29.59 in1.6 miNorth (10°)10.4 mphSnowLight Snow
4:00 AM33.8 °F30.2 °F87 %29.59 in0.9 miNorth (360°)10.4 mphSnowSnow
4:30 AM32.0 °F30.2 °F93 %29.59 in0.9 miNorth (360°)12.7 mphSnowSnow
4:48 AM33.8 °F30.2 °F87 %29.56 in0.9 miNorth (10°)12.7 mphSnowSnow
5:00 AM33.8 °F30.2 °F87 %29.56 in0.9 miNorth (10°)13.8 mphSnowSnow
5:30 AM33.8 °F30.2 °F87 %29.56 in1.9 miNNE (20°)16.1 mphSnowLight Snow
5:41 AM33.8 °F30.2 °F87 %29.56 in3.1 miNNE (20°)17.3 mphSnowLight Snow
6:00 AM33.8 °F30.2 °F87 %29.56 in3.1 miNNE (20°)16.1 mphRain-SnowLight Rain
6:30 AM33.8 °F30.2 °F87 %29.56 inNNE (20°)17.3 mphRain-SnowLight Rain
6:34 AM33.8 °F30.2 °F87 %29.56 in1.9 miNNE (20°)18.4 mphRain-SnowLight Rain
6:49 AM33.8 °F30.2 °F87 %29.56 in1.6 miNNE (20°)19.6 mphRain-SnowLight Rain
7:00 AM33.8 °F30.2 °F87 %29.53 in1.1 miNorth (10°)18.4 mphRain-SnowLight Rain
7:30 AM33.8 °F30.2 °F87 %29.56 in1.0 miNorth (10°)16.1 mphRain-SnowLight Rain
8:00 AM33.8 °F30.2 °F87 %29.56 in1.1 miNorth (10°)15.0 mphSnowLight Snow
8:00 AM33.0 °F30.0 °F84 %29.61 in1.0 miNorth (10°)13.4 mphSnowLight Snow
8:13 AM33.8 °F30.2 °F87 %29.56 in0.9 miNorth (360°)15.0 mphSnowLight Snow
8:30 AM32.0 °F30.2 °F93 %29.56 inNorth (360°)17.3 mphSnowSnow
9:00 AM32.0 °F30.2 °F93 %29.56 in0.5 miNorth (350°)15.0 mphSnowSnow
9:30 AM32.0 °F30.2 °F93 %29.56 in0.6 miNorth (350°)17.3 mphSnowSnow
10:00 AM32.0 °F30.2 °F93 %29.56 in0.6 miNorth (360°)18.4 mphSnowSnow
10:30 AM32.0 °F30.2 °F93 %29.56 in1.0 miNorth (350°)19.6 mphSnowLight Snow
10:37 AM32.0 °F30.2 °F93 %29.56 in1.2 miNorth (350°)21.9 mphSnowLight Snow
11:00 AM32.0 °F30.2 °F93 %29.56 in1.4 miNorth (350°)19.6 mphSnowLight Snow
11:17 AM32.0 °F30.2 °F93 %29.56 inNorth (360°)20.7 mphSnowLight Snow
11:30 AM32.0 °F30.2 °F93 %29.56 inNorth (350°)19.6 mphSnowLight Snow
12:00 PM32.0 °F30.2 °F93 %29.56 in3.1 miNorth (350°)19.6 mphSnowLight Snow
12:30 PM32.0 °F30.2 °F93 %29.56 in3.7 miNNW (340°)15.0 mphSnowLight Snow
1:00 PM33.8 °F30.2 °F87 %29.56 in3.1 miNNW (340°)15.0 mphSnowLight Snow
1:14 PM33.8 °F30.2 °F87 %29.56 inNNW (330°)16.1 mphSnowLight Snow
1:30 PM32.0 °F28.4 °F87 %29.56 in1.4 miNNW (330°)15.0 mphSnowLight Snow
2:00 PM32.0 °F28.4 °F87 %29.56 in1.1 miNNW (330°)12.7 mphSnowLight Snow
2:00 PM33.0 °F30.0 °F82 %29.63 in1.0 miNNW (330°)15.7 mphSnowLight Snow
2:30 PM32.0 °F28.4 °F87 %29.59 in1.3 miNNW (330°)15.0 mphSnowLight Snow
3:00 PM32.0 °F28.4 °F87 %29.59 in1.6 miNNW (340°)16.1 mphSnowLight Snow
3:22 PM33.8 °F30.2 °F87 %29.59 in2.2 miNNW (340°)16.1 mphSnowLight Snow
3:30 PM32.0 °F28.4 °F87 %29.59 inNNW (340°)17.3 mphSnowLight Snow
3:49 PM32.0 °F26.6 °F80 %29.59 in3.1 miNNW (340°)17.3 mphSnowLight Snow
4:00 PM33.8 °F26.6 °F75 %29.59 in3.1 miNNW (340°)17.3 mphSnowLight Snow
4:06 PM32.0 °F26.6 °F80 %29.59 in2.5 miNNW (330°)18.4 mphSnowLight Snow
4:15 PM32.0 °F26.6 °F80 %29.59 in1.7 miNNW (340°)19.6 mphSnowLight Snow
4:30 PM32.0 °F28.4 °F87 %29.62 in1.6 miNNW (340°)19.6 mphSnowLight Snow
4:49 PM32.0 °F28.4 °F87 %29.62 inNNW (340°)17.3 mphSnowLight Snow
5:00 PM32.0 °F26.6 °F80 %29.62 in1.6 miNNW (340°)16.1 mphSnowLight Snow
5:30 PM32.0 °F28.4 °F87 %29.62 in1.2 miNW (320°)13.8 mphSnowLight Snow
6:00 PM30.2 °F26.6 °F86 %29.65 in1.4 miNW (320°)12.7 mphSnowLight Snow
6:30 PM30.2 °F28.4 °F93 %29.65 inNW (310°)12.7 mphSnowLight Snow
7:00 PM30.2 °F28.4 °F93 %29.65 inNW (320°)12.7 mphSnowLight Snow
7:30 PM30.2 °F28.4 °F93 %29.65 inNW (320°)13.8 mphSnowLight Snow
8:00 PM31.0 °F27.0 °F79 %29.73 in2.0 miNW (320°)13.4 mphSnowLight Snow
8:00 PM30.2 °F28.4 °F93 %29.68 in2.2 miNW (320°)12.7 mphSnowLight Snow
8:30 PM30.2 °F28.4 °F93 %29.68 in2.2 miNW (310°)10.4 mphSnowLight Snow
9:00 PM30.2 °F26.6 °F86 %29.68 inNW (320°)13.8 mphSnowLight Snow
9:30 PM30.2 °F26.6 °F86 %29.68 in5.0 miNW (310°)10.4 mphSnowLight Snow
10:00 PM30.2 °F26.6 °F86 %29.68 in6.2 miNW (310°)11.5 mphScattered Clouds
10:19 PM30.2 °F26.6 °F86 %29.68 in6.2 miNW (310°)9.2 mphScattered Clouds
10:30 PM30.2 °F24.8 °F80 %29.71 in6.2 miWNW (300°)8.1 mphPartly Cloudy
11:00 PM30.2 °F24.8 °F80 %29.68 in6.2 miNW (310°)10.4 mphPartly Cloudy
11:30 PM32.0 °F24.8 °F75 %29.68 in6.2 miWNW (290°)9.2 mphPartly Cloudy
Hourly data recorded from LKTB, located miles away from Brno, Czech Republic







STORIES FROM OUR PARTNERS